Live Position
Loading 3D Globe...
About SPAWAR-CAL-O
Group: 3 satellites
Description loading...
Upcoming Passes
Passes for default location (London). Set your location on the main map for personalized predictions.
Altitude History
Loading altitude history...
No altitude history available
Two-Line Element Set
1 43766U 18099J 26107.14111321 .00012048 00000-0 38048-3 0 9994
2 43766 97.4384 170.6936 0009676 144.0242 216.1653 15.32936779404161
Epoch: Apr 17, 2026 •
Age: 14 hours
Current Status
Altitude 473.5 km
Velocity 7.63 km/s
Sub-Earth Point 32.97°N,
56.14°E
Launch Date Dec 3, 2018
Age 7.3 years
Type other
Technical Details
Classification Payload
Mass 1.00 kg
Dry Mass 1.00 kg
Total Mass 1.00 kg
Length 0.10 m
Diameter 0.10 m
Span 0.10 m
Shape Box
Manufacturer SPAWAR
Bus Type Cubesat 1U
Phase Status In Orbit
Owner/State SPAWAR/US
Most Searched
Loading...